Погода в Барроу

США     71°17′57″N   156°43′49″W
темп.,
°C
ветер,
м/с
пор.,
м/с
влажн.,
%
обл.,
%
осадки,
мм/ч
давл.,
гПа
погр.,
м
6 июля, ср
ср601:00+6зсз3389100 0.0 1010105
04:00+5зсз3496100 0.1 1010100
07:00+5зсз3396100 3.3 101084
10:00+8ссз119190 3.4 1010115
13:00+11в337690 0.0 1009343
16:00+13всв4471100 0.0 1008382
19:00+10в5578100 0.0 1007216
22:00+7в5687100 0.0 1007133
7 июля, чт
чт701:00+5всв459197 0.0 1007107
04:00+4св459490 0.0 1007106
07:00+5всв349272 0.0 100692
10:00+9св337635 0.0 1006141
13:00+8всв447690 0.0 1006174
16:00+9всв447389 0.0 1006204
19:00+7всв458118 0.1 1007159
22:00+6всв568747 0.1 1007140
8 июля, пт
пт801:00+3всв579486 0.0 1009160
04:00+3всв579592 0.1 1009169
07:00+3всв469387 0.0 1010158
10:00+5всв458898 0.0 1011190
13:00+6всв458491 0.0 1011195
16:00+6всв558230 0.0 1011187
19:00+7всв568139 0.0 1010215
22:00+5всв558538 0.0 1011177
9 июля, сб
сб901:00+4всв459136 0.0 1011118
04:00+3в459452 0.0 1010104
07:00+5вюв448414 0.0 1010133
10:00+10в326712 0.0 1010178
13:00+13в435611 0.0 1010316
16:00+16всв315012 0.1 1010439
19:00+12св436111 0.0 1010160
22:00+9всв437314 0.0 1010112
10 июля, вс
вс1001:00+8в337479 0.0 101277
04:00+9в117411 0.0 101221
07:00+11ссв116998 0.0 101275
10:00+11св226597 0.0 1012136
13:00+13ссз2258100 0.0 1012313
16:00+11з5665100 0.0 1013385
19:00+9з61181100 0.0 1013310
22:00+5з61089100 0.0 1013270